Regional Weather Roundup
Issued by NWS Grand Forks, ND

Home | Current Version | Previous Version | Text Only | Print | Product List | Glossary Off
Versions: 1 2 3 4 5 6 7 8 9 10 11 12 13 14 15 16 17 18 19 20 21 22 23 24 25 26 27 28 29 30 31 32 33 34 35 36 37 38 39 40 41 42 43 44 45 46 47 48 49 50

000
ASUS43 KFGF 302231
RWRFGF
PRAIRIE TO PINES  WEATHER ROUNDUP
NATIONAL WEATHER SERVICE EASTERN NORTH DAKOTA/GRAND FORKS ND
500 PM CDT TUE JUN 30 2015

 **SATELLITE DATA USED TO AUGMENT SKY COVER AT AUTOMATED STATIONS**
 *****  WEATHER ACROSS EASTERN NORTH DAKOTA  *****

CITY           SKY/WX    TMP DP  RH WIND       PRES   REMARKS
GRAND FORKS    CLOUDY    75  55  49 SE3       29.91S
GRAND FRKS AFB PTSUNNY   73  59  60 SE3       29.92S
GRAND FRKS NWS   N/A     73 N/A N/A E3          N/A
DEVILS LAKE    CLOUDY    70  59  68 SE9       29.92F
FARGO          CLOUDY    75  57  53 CALM      29.91R
WAHPETON ARPT  MOCLDY    72  57  60 CALM      29.91S
$$

 ***** WEATHER ACROSS CENTRAL AND WESTERN NORTH DAKOTA  *****

CITY           SKY/WX    TMP DP  RH WIND       PRES   REMARKS
BISMARCK       LGT RAIN  73  65  75 N9        29.94R
MINOT          CLOUDY    68  63  84 CALM      29.90F HAZE
JAMESTOWN      PTSUNNY   73  61  65 SE10      29.91S
MINOT AFB      CLOUDY    70  70 100 E8        29.89F
GARRISON         N/A     69  65  86 NE6       29.90F
WILLISTON      PTSUNNY   79  57  46 E17G24    29.87F HAZE
DICKINSON      PTSUNNY   76  65  68 SE12      29.88S
HETTINGER      MOSUNNY   77  65  66 SE14      29.89F
$$

 *****  OTHER AIRPORT OBSERVATIONS IN OUR AREA  *****

CITY           SKY/WX    TMP DP  RH WIND       PRES   REMARKS
WALHALLA       FAIR      73  59  60 MISG      29.92F
GRAFTON AIRPOR FAIR      75  57  53 SE7       29.92F
VALLEY CITY AR FAIR      72  59  64 SE8       29.93S
CANDO          FAIR      68  61  77 SE5       29.93F
CAVALIER APRT  FAIR      75  57  53 SE3       29.92S
GWINNER        NOT AVBL
SHEYENNE NWR     N/A     73  61  65 SE7       29.95S
ROLLA          FAIR      68  59  73 SE6       29.95S
 ***** THE ABOVE OBSERVATIONS ARE NON NWS ARE NOT QUALITY
       CONTROLLED AND MAY MIS-REPORT RAIN FOR SNOW...
$$

  *****  WEATHER ACROSS NORTHERN MINNESOTA  *****

CITY           SKY/WX    TMP DP  RH WIND       PRES   REMARKS
FLAG ISLAND    PTSUNNY   68  48  49 SE5       29.94F
WARROAD        PTSUNNY   68  57  68 NE7       29.95S
ROSEAU         PTSUNNY   73  61  64 E7        29.94S
HALLOCK        MOSUNNY   75  57  53 CALM      29.91F
THF RVR FALLS  PTSUNNY   75  55  50 CALM      29.93S
BAUDETTE       MOSUNNY   73  49  42 CALM      29.94F
WASKISH        MOSUNNY   73  55  53 W6        29.94S
CROOKSTON      MOSUNNY   75  55  50 E6        29.93S
$$
  *****  WEATHER ACROSS CENTRAL AND WEST MINNESOTA  *****

CITY           SKY/WX    TMP DP  RH WIND       PRES   REMARKS
FOSSTON        PTSUNNY   75  57  53 CALM      29.94S
BEMIDJI        MOSUNNY   72  52  49 NE5       29.93F
PARK RAPIDS    PTSUNNY   76  53  44 E3        29.92F
ELBOW LAKE     FAIR      73  58  60 SE5       29.91F
WADENA           N/A     73  57  56 NE6       29.92S
DETROIT LAKES  CLOUDY    73  54  49 E5        29.94R
MOORHEAD       CLOUDY    73  57  56 CALM      29.92R
FERGUS FALLS   CLOUDY    73  57  56 CALM      29.91S
MORRIS MN      PTSUNNY   73  61  64 SW6       29.91S
STAPLES        CLOUDY    75  52  43 NE5       29.92S
$$
  *****  WEATHER ELSEWHERE ACROSS MINNESOTA  *****

CITY           SKY/WX    TMP DP  RH WIND       PRES   REMARKS
DULUTH         PTSUNNY   62  45  53 SE7       29.97F
INTRNTL FALLS  MOSUNNY   70  48  45 N7        29.96S
ELY            MOSUNNY   68  43  40 CALM      29.95S
CLOQUET        PTSUNNY   64  48  55 E7        29.96F
WHEATON        PTSUNNY   70  57  64 SE3       29.93S
BRAINERD       PTSUNNY   74  53  48 CALM      29.94S
HIBBING        MOSUNNY   72  49  44 CALM      29.95F
ALEXANDRIA     CLOUDY    74  57  55 E9        29.93F
SAINT CLOUD    PTSUNNY   74  56  53 E5        29.91F
MINNEAPOLIS    PTSUNNY   76  55  48 E6        29.91F
$$

  *****  WEATHER ACROSS SOUTH DAKOTA  *****

CITY           SKY/WX    TMP DP  RH WIND       PRES   REMARKS
SIOUX FALLS    LGT RAIN  73  65  75 W3        29.92S
BROOKINGS      CLOUDY    73  63  68 E13       29.92S
WATERTOWN      CLOUDY    72  61  68 E7        29.91F
HURON          LGT RAIN  71  68  90 SE6       29.87F FOG
SISSETON         N/A     74  60  61 SE7       29.90F
ABERDEEN       CLOUDY    75  64  68 CALM      29.89F
MITCHELL       CLOUDY    73  69  87 CALM      29.91S
PIERRE         CLOUDY    77  66  68 E10       29.89R
MOBRIDGE       LGT RAIN  70  66  87 SE9       29.85F FOG
RAPID CITY     CLOUDY    84  71  65 E8        29.90F
$$

  *****  SOME WEATHER IN NEARBY STATES *****

CITY           SKY/WX    TMP DP  RH WIND       PRES   REMARKS
GLASGOW MT     NOT AVBL
GREAT FALLS MT SUNNY     92  38  15 NW17G29   29.96F
CHEYENNE WY    PTSUNNY   86  46  24 CALM      30.13F
SCOTTSBLUFF NE MOSUNNY   91  54  28 W7        29.93F
OMAHA NE       CLOUDY    76  67  73 E5        29.89F
DES MOINES IA  CLOUDY    81  63  54 NW6       29.89S
DAVENPORT IA   MOSUNNY   80  64  58 NW7       29.85F
CHICAGO IL     MOSUNNY   71  60  68 NE14      29.83R
EAU CLAIRE WI  SUNNY     71  50  47 NE7       29.90S
LA CROSSE WI   MOSUNNY   75  53  46 NW12      29.88S
$$

  *****  SOME NATIONAL WEATHER *****

CITY           SKY/WX    TMP DP  RH WIND       PRES   REMARKS
LA GUARDIA NY  CLOUDY    77  63  61 S17G24    29.87F
RALEIGH NC     PTSUNNY   89  68  49 S10       29.85F HX  93
ATLANTA GA     MOSUNNY   86  65  49 W9        29.96F
NEW ORLEANS LA CLOUDY    80  69  69 NW15G23   30.07R
OKLAHOMA CITY  MOSUNNY   93  67  42 S10       29.94F HX  96
ALBUQUERQUE NM MOSUNNY   91  46  21 SE6       30.11F
SALT LAKE CITY MOSUNNY   99  54  22 N8        29.99F HX  97
LOS ANGELES CA MOSUNNY   74  65  73 W10       29.90S
BOISE ID       SUNNY    100  50  18 W13G21    29.94F HX  97
SEATTLE WA     MOSUNNY   82  60  47 W7        30.09F
$$

*** WEATHER ACROSS MANITOBA...SASKATCHEWAN AND ONTARIO ***
                ***ONTARIO***

CITY           SKY/WX    TMP DP  RH WIND       PRES   REMARKS
GERALDTON      MOSUNNY   63  37  39 N7        29.96S
THUNDER BAY    MOSUNNY   66  45  45 SE6       29.95S
SIOUX LOOKOUT  PTSUNNY   66  46  48 N9        29.97F
TORONTO        DRIZZLE   63  59  88 NE5       29.76F
BIG TROUT LK   SUNNY     66  39  37 S6        29.96F
PICKLE LAKE    MOSUNNY   66  36  32 VRB2      29.97F
DRYDEN         PTSUNNY   66  48  52 E5        29.97F
KENORA         PTSUNNY   70  52  52 W8        29.97S
$$
                *** MANITOBA***

CITY           SKY/WX    TMP DP  RH WIND       PRES   REMARKS
BRANDON        CLOUDY    73  59  60 NE6       29.93F
DAUPHIN        SUNNY     73  61  64 E6        29.93F
ISLAND LAKE    MOSUNNY   66  43  42 W5        29.94F
PILOT MOUND      N/A    N/A N/A N/A SE5         N/A
THE PAS        CLOUDY    79  57  47 SW8       29.86F
THOMPSON       CLOUDY    68  55  64 SW8       29.89F
WINNIPEG       PTSUNNY   75  59  57 N3        29.92F
LYNN LAKE        N/A    N/A N/A N/A MISG        N/A
CHURCHILL      MOSUNNY   63  39  42 E13       29.89S
GILLAM         PTSUNNY   64  52  63 S5        29.89F
$$
                ***SASKATCHEWAN***

CITY           SKY/WX    TMP DP  RH WIND       PRES   REMARKS
ESTEVAN        PTSUNNY   68  61  77 E7        29.91F THUNDER SMOKE
KINDERSLEY     CLOUDY    68  59  73 NE9       29.97S SMOKE
LLOYDMINSTER   CLOUDY    72  59  64 W9        29.98F
PRINCE ALBERT    N/A     73  63  68 S6        29.89S SMOKE
REGINA         CLOUDY    63  61  94 SW3       29.95R SMOKE
YORKTON        SUNNY     72  59  64 SE7       29.93S
N. BATTLEFORD  NOT AVBL
LA RONGE       SMOKE     77  61  57 SW3       29.84F VSB 1/2
SASKATOON        N/A     70  57  64 NW7       29.94F SMOKE
SWIFT CURRENT  MOSUNNY   73  57  56 E21G31    29.90R HAZE
$$
NOTE: THESE ARE AUTOMATED STATIONS WITH LIMITED QUALITY CONTROL
      "FAIR" INDICATES FEW OR NO CLOUDS BELOW 12,000 FEET WITH NO
      SIGNIFICANT WEATHER AND/OR OBSTRUCTIONS TO VISIBILITY.
      SKY/WX - SKY CONDITION AND SIGNIFICANT WEATHER.
      TMP - AIR TEMPERATURE.    DP   - DEWPOINT TEMPERATURE.
      RH  - RELATIVE HUMIDITY.  PRES - PRESSURE.
      HX  - HEAT INDEX.         WCI  - WIND CHILL INDEX.
$


USA.gov is the U.S. government's official web portal to all federal, state and local government web resources and services.